Time,TemperatureF,DewpointF,PressureIn,WindDirection,WindDirectionDegrees,WindSpeedMPH,WindSpeedGustMPH,Humidity,HourlyPrecipIn,Conditions,Clouds,dailyrainin,SoftwareType,DateUTC
2013-07-14 00:12:00,68.0,64.3,30.43,North,-999,-999.0,-999.0,88,-99.99,,,-99.99,Acu-Link.com,2013-07-14 04:12:00,
2013-07-14 00:27:00,67.6,64.0,30.43,North,-999,-999.0,-999.0,88,-99.99,,,-99.99,Acu-Link.com,2013-07-14 04:27:00,
2013-07-14 00:42:00,68.0,64.3,30.43,North,-999,-999.0,-999.0,88,-99.99,,,-99.99,Acu-Link.com,2013-07-14 04:42:00,
2013-07-14 00:57:00,67.6,64.0,30.42,North,-999,-999.0,-999.0,88,-99.99,,,-99.99,Acu-Link.com,2013-07-14 04:57:00,
2013-07-14 01:12:00,67.5,64.1,30.42,North,-999,-999.0,-999.0,89,-99.99,,,-99.99,Acu-Link.com,2013-07-14 05:12:00,
2013-07-14 01:27:00,67.3,63.9,30.42,North,-999,-999.0,-999.0,89,-99.99,,,-99.99,Acu-Link.com,2013-07-14 05:27:00,
2013-07-14 01:43:00,67.5,64.1,30.41,North,-999,-999.0,-999.0,89,-99.99,,,-99.99,Acu-Link.com,2013-07-14 05:43:00,
2013-07-14 01:58:00,67.5,64.1,30.42,North,-999,-999.0,-999.0,89,-99.99,,,-99.99,Acu-Link.com,2013-07-14 05:58:00,
2013-07-14 02:13:00,67.3,63.9,30.42,North,-999,-999.0,-999.0,89,-99.99,,,-99.99,Acu-Link.com,2013-07-14 06:13:00,
2013-07-14 02:28:00,67.3,63.9,30.42,North,-999,-999.0,-999.0,89,-99.99,,,-99.99,Acu-Link.com,2013-07-14 06:28:00,
2013-07-14 02:43:00,67.1,63.7,30.41,North,-999,-999.0,-999.0,89,-99.99,,,-99.99,Acu-Link.com,2013-07-14 06:43:00,
2013-07-14 02:58:00,66.7,63.4,30.41,North,-999,-999.0,-999.0,89,-99.99,,,-99.99,Acu-Link.com,2013-07-14 06:58:00,
2013-07-14 03:13:00,66.4,63.0,30.42,North,-999,-999.0,-999.0,89,-99.99,,,-99.99,Acu-Link.com,2013-07-14 07:13:00,
2013-07-14 03:28:00,65.8,62.8,30.42,North,-999,-999.0,-999.0,90,-99.99,,,-99.99,Acu-Link.com,2013-07-14 07:28:00,
2013-07-14 03:43:00,65.5,62.5,30.42,North,-999,-999.0,-999.0,90,-99.99,,,-99.99,Acu-Link.com,2013-07-14 07:43:00,
2013-07-14 03:59:00,65.1,62.1,30.42,North,-999,-999.0,-999.0,90,-99.99,,,-99.99,Acu-Link.com,2013-07-14 07:59:00,
2013-07-14 04:14:00,64.9,61.9,30.42,North,-999,-999.0,-999.0,90,-99.99,,,-99.99,Acu-Link.com,2013-07-14 08:14:00,
2013-07-14 04:29:00,64.8,61.8,30.42,North,-999,-999.0,-999.0,90,-99.99,,,-99.99,Acu-Link.com,2013-07-14 08:29:00,
2013-07-14 04:44:00,64.6,61.6,30.42,North,-999,-999.0,-999.0,90,-99.99,,,-99.99,Acu-Link.com,2013-07-14 08:44:00,
2013-07-14 04:59:00,64.0,61.4,30.42,North,-999,-999.0,-999.0,91,-99.99,,,-99.99,Acu-Link.com,2013-07-14 08:59:00,
2013-07-14 05:14:00,63.9,61.2,30.42,North,-999,-999.0,-999.0,91,-99.99,,,-99.99,Acu-Link.com,2013-07-14 09:14:00,
2013-07-14 05:30:00,63.7,61.0,30.42,North,-999,-999.0,-999.0,91,-99.99,,,-99.99,Acu-Link.com,2013-07-14 09:30:00,
2013-07-14 05:45:00,63.7,61.0,30.43,North,-999,-999.0,-999.0,91,-99.99,,,-99.99,Acu-Link.com,2013-07-14 09:45:00,
2013-07-14 06:00:00,64.4,61.4,30.43,North,-999,-999.0,-999.0,90,-99.99,,,-99.99,Acu-Link.com,2013-07-14 10:00:00,
2013-07-14 06:15:00,64.8,61.8,30.44,North,-999,-999.0,-999.0,90,-99.99,,,-99.99,Acu-Link.com,2013-07-14 10:15:00,
2013-07-14 06:30:00,66.7,63.4,30.44,North,-999,-999.0,-999.0,89,-99.99,,,-99.99,Acu-Link.com,2013-07-14 10:30:00,
2013-07-14 06:45:00,70.9,66.5,30.44,North,-999,-999.0,-999.0,86,-99.99,,,-99.99,Acu-Link.com,2013-07-14 10:45:00,
2013-07-14 07:00:00,87.4,69.3,30.45,North,-999,-999.0,-999.0,55,-99.99,,,-99.99,Acu-Link.com,2013-07-14 11:00:00,
2013-07-14 07:15:00,82.0,65.3,30.44,North,-999,-999.0,-999.0,57,-99.99,,,-99.99,Acu-Link.com,2013-07-14 11:15:00,
2013-07-14 07:30:00,77.2,64.5,30.44,North,-999,-999.0,-999.0,65,-99.99,,,-99.99,Acu-Link.com,2013-07-14 11:30:00,
2013-07-14 07:45:00,76.1,65.6,30.45,North,-999,-999.0,-999.0,70,-99.99,,,-99.99,Acu-Link.com,2013-07-14 11:45:00,
2013-07-14 08:01:00,75.4,66.1,30.45,North,-999,-999.0,-999.0,73,-99.99,,,-99.99,Acu-Link.com,2013-07-14 12:01:00,
2013-07-14 08:16:00,81.0,68.5,30.45,North,-999,-999.0,-999.0,66,-99.99,,,-99.99,Acu-Link.com,2013-07-14 12:16:00,
2013-07-14 08:31:00,84.9,68.5,30.44,North,-999,-999.0,-999.0,58,-99.99,,,-99.99,Acu-Link.com,2013-07-14 12:31:00,
2013-07-14 08:46:00,82.4,67.1,30.44,North,-999,-999.0,-999.0,60,-99.99,,,-99.99,Acu-Link.com,2013-07-14 12:46:00,
2013-07-14 09:01:00,81.9,66.6,30.44,North,-999,-999.0,-999.0,60,-99.99,,,-99.99,Acu-Link.com,2013-07-14 13:01:00,
2013-07-14 09:16:00,83.1,67.3,30.44,North,-999,-999.0,-999.0,59,-99.99,,,-99.99,Acu-Link.com,2013-07-14 13:16:00,
2013-07-14 09:31:00,83.7,68.3,30.43,North,-999,-999.0,-999.0,60,-99.99,,,-99.99,Acu-Link.com,2013-07-14 13:31:00,
2013-07-14 09:46:00,83.1,68.7,30.43,North,-999,-999.0,-999.0,62,-99.99,,,-99.99,Acu-Link.com,2013-07-14 13:46:00,
2013-07-14 10:01:00,81.7,67.8,30.43,North,-999,-999.0,-999.0,63,-99.99,,,-99.99,Acu-Link.com,2013-07-14 14:01:00,
2013-07-14 10:16:00,82.6,67.3,30.43,North,-999,-999.0,-999.0,60,-99.99,,,-99.99,Acu-Link.com,2013-07-14 14:16:00,
2013-07-14 10:31:00,83.3,66.4,30.43,North,-999,-999.0,-999.0,57,-99.99,,,-99.99,Acu-Link.com,2013-07-14 14:31:00,
2013-07-14 10:46:00,83.1,66.3,30.43,North,-999,-999.0,-999.0,57,-99.99,,,-99.99,Acu-Link.com,2013-07-14 14:46:00,
2013-07-14 11:01:00,84.6,66.6,30.43,North,-999,-999.0,-999.0,55,-99.99,,,-99.99,Acu-Link.com,2013-07-14 15:01:00,
2013-07-14 11:17:00,85.6,66.0,30.42,North,-999,-999.0,-999.0,52,-99.99,,,-99.99,Acu-Link.com,2013-07-14 15:17:00,
2013-07-14 11:32:00,84.9,65.8,30.42,North,-999,-999.0,-999.0,53,-99.99,,,-99.99,Acu-Link.com,2013-07-14 15:32:00,
2013-07-14 11:47:00,84.4,65.9,30.43,North,-999,-999.0,-999.0,54,-99.99,,,-99.99,Acu-Link.com,2013-07-14 15:47:00,
2013-07-14 12:02:00,84.6,66.6,30.42,North,-999,-999.0,-999.0,55,-99.99,,,-99.99,Acu-Link.com,2013-07-14 16:02:00,
2013-07-14 12:17:00,84.4,65.9,30.42,North,-999,-999.0,-999.0,54,-99.99,,,-99.99,Acu-Link.com,2013-07-14 16:17:00,
2013-07-14 12:32:00,84.2,66.3,30.42,North,-999,-999.0,-999.0,55,-99.99,,,-99.99,Acu-Link.com,2013-07-14 16:32:00,
2013-07-14 12:47:00,85.6,67.1,30.41,North,-999,-999.0,-999.0,54,-99.99,,,-99.99,Acu-Link.com,2013-07-14 16:47:00,
2013-07-14 13:02:00,86.2,66.5,30.41,North,-999,-999.0,-999.0,52,-99.99,,,-99.99,Acu-Link.com,2013-07-14 17:02:00,
2013-07-14 13:17:00,86.7,65.8,30.41,North,-999,-999.0,-999.0,50,-99.99,,,-99.99,Acu-Link.com,2013-07-14 17:17:00,
2013-07-14 13:32:00,88.3,66.1,30.40,North,-999,-999.0,-999.0,48,-99.99,,,-99.99,Acu-Link.com,2013-07-14 17:32:00,
2013-07-14 13:48:00,88.5,66.9,30.39,North,-999,-999.0,-999.0,49,-99.99,,,-99.99,Acu-Link.com,2013-07-14 17:48:00,
2013-07-14 14:03:00,87.8,65.6,30.40,North,-999,-999.0,-999.0,48,-99.99,,,-99.99,Acu-Link.com,2013-07-14 18:03:00,
2013-07-14 14:18:00,87.1,66.2,30.40,North,-999,-999.0,-999.0,50,-99.99,,,-99.99,Acu-Link.com,2013-07-14 18:18:00,
2013-07-14 14:33:00,87.1,66.7,30.39,North,-999,-999.0,-999.0,51,-99.99,,,-99.99,Acu-Link.com,2013-07-14 18:33:00,
2013-07-14 14:48:00,87.8,65.6,30.39,North,-999,-999.0,-999.0,48,-99.99,,,-99.99,Acu-Link.com,2013-07-14 18:48:00,
2013-07-14 15:03:00,87.3,66.3,30.38,North,-999,-999.0,-999.0,50,-99.99,,,-99.99,Acu-Link.com,2013-07-14 19:03:00,
2013-07-14 15:18:00,85.1,65.5,30.38,North,-999,-999.0,-999.0,52,-99.99,,,-99.99,Acu-Link.com,2013-07-14 19:18:00,
2013-07-14 15:33:00,83.8,65.4,30.39,North,-999,-999.0,-999.0,54,-99.99,,,-99.99,Acu-Link.com,2013-07-14 19:33:00,
2013-07-14 15:48:00,82.4,65.6,30.38,North,-999,-999.0,-999.0,57,-99.99,,,-99.99,Acu-Link.com,2013-07-14 19:48:00,
2013-07-14 16:03:00,81.9,66.1,30.38,North,-999,-999.0,-999.0,59,-99.99,,,-99.99,Acu-Link.com,2013-07-14 20:03:00,
2013-07-14 16:18:00,83.1,67.3,30.38,North,-999,-999.0,-999.0,59,-99.99,,,-99.99,Acu-Link.com,2013-07-14 20:18:00,
2013-07-14 16:33:00,83.8,67.5,30.38,North,-999,-999.0,-999.0,58,-99.99,,,-99.99,Acu-Link.com,2013-07-14 20:33:00,
2013-07-14 16:48:00,83.3,67.4,30.37,North,-999,-999.0,-999.0,59,-99.99,,,-99.99,Acu-Link.com,2013-07-14 20:48:00,
2013-07-14 17:03:00,83.3,67.4,30.37,North,-999,-999.0,-999.0,59,-99.99,,,-99.99,Acu-Link.com,2013-07-14 21:03:00,
2013-07-14 17:19:00,83.1,66.8,30.37,North,-999,-999.0,-999.0,58,-99.99,,,-99.99,Acu-Link.com,2013-07-14 21:19:00,
2013-07-14 17:34:00,83.1,66.8,30.37,North,-999,-999.0,-999.0,58,-99.99,,,-99.99,Acu-Link.com,2013-07-14 21:34:00,
2013-07-14 17:49:00,82.6,65.8,30.37,North,-999,-999.0,-999.0,57,-99.99,,,-99.99,Acu-Link.com,2013-07-14 21:49:00,
2013-07-14 18:04:00,81.9,66.1,30.36,North,-999,-999.0,-999.0,59,-99.99,,,-99.99,Acu-Link.com,2013-07-14 22:04:00,
2013-07-14 18:19:00,81.9,67.1,30.36,North,-999,-999.0,-999.0,61,-99.99,,,-99.99,Acu-Link.com,2013-07-14 22:19:00,
2013-07-14 18:34:00,81.5,66.3,30.36,North,-999,-999.0,-999.0,60,-99.99,,,-99.99,Acu-Link.com,2013-07-14 22:34:00,
2013-07-14 18:49:00,81.5,66.3,30.36,North,-999,-999.0,-999.0,60,-99.99,,,-99.99,Acu-Link.com,2013-07-14 22:49:00,
2013-07-14 19:04:00,80.1,66.3,30.36,North,-999,-999.0,-999.0,63,-99.99,,,-99.99,Acu-Link.com,2013-07-14 23:04:00,
2013-07-14 19:19:00,79.7,66.0,30.36,North,-999,-999.0,-999.0,63,-99.99,,,-99.99,Acu-Link.com,2013-07-14 23:19:00,
2013-07-14 19:34:00,79.0,66.2,30.36,North,-999,-999.0,-999.0,65,-99.99,,,-99.99,Acu-Link.com,2013-07-14 23:34:00,
2013-07-14 19:50:00,77.5,65.7,30.36,North,-999,-999.0,-999.0,67,-99.99,,,-99.99,Acu-Link.com,2013-07-14 23:50:00,
2013-07-14 20:05:00,76.5,65.5,30.36,North,-999,-999.0,-999.0,69,-99.99,,,-99.99,Acu-Link.com,2013-07-15 00:05:00,
2013-07-14 20:20:00,75.4,64.9,30.37,North,-999,-999.0,-999.0,70,-99.99,,,-99.99,Acu-Link.com,2013-07-15 00:20:00,
2013-07-14 20:35:00,74.3,64.7,30.37,North,-999,-999.0,-999.0,72,-99.99,,,-99.99,Acu-Link.com,2013-07-15 00:35:00,
2013-07-14 20:50:00,73.4,64.6,30.37,North,-999,-999.0,-999.0,74,-99.99,,,-99.99,Acu-Link.com,2013-07-15 00:50:00,
2013-07-14 21:05:00,72.5,64.1,30.37,North,-999,-999.0,-999.0,75,-99.99,,,-99.99,Acu-Link.com,2013-07-15 01:05:00,
2013-07-14 21:20:00,72.0,64.0,30.37,North,-999,-999.0,-999.0,76,-99.99,,,-99.99,Acu-Link.com,2013-07-15 01:20:00,
2013-07-14 21:35:00,71.2,64.0,30.37,North,-999,-999.0,-999.0,78,-99.99,,,-99.99,Acu-Link.com,2013-07-15 01:35:00,
2013-07-14 21:51:00,70.7,63.5,30.37,North,-999,-999.0,-999.0,78,-99.99,,,-99.99,Acu-Link.com,2013-07-15 01:51:00,
2013-07-14 22:06:00,70.0,63.2,30.37,North,-999,-999.0,-999.0,79,-99.99,,,-99.99,Acu-Link.com,2013-07-15 02:06:00,
2013-07-14 22:21:00,69.4,63.0,30.37,North,-999,-999.0,-999.0,80,-99.99,,,-99.99,Acu-Link.com,2013-07-15 02:21:00,
2013-07-14 22:36:00,69.1,62.6,30.37,North,-999,-999.0,-999.0,80,-99.99,,,-99.99,Acu-Link.com,2013-07-15 02:36:00,
2013-07-14 22:51:00,68.7,62.6,30.37,North,-999,-999.0,-999.0,81,-99.99,,,-99.99,Acu-Link.com,2013-07-15 02:51:00,
2013-07-14 23:06:00,68.4,62.6,30.37,North,-999,-999.0,-999.0,82,-99.99,,,-99.99,Acu-Link.com,2013-07-15 03:06:00,
2013-07-14 23:21:00,68.0,62.3,30.37,North,-999,-999.0,-999.0,82,-99.99,,,-99.99,Acu-Link.com,2013-07-15 03:21:00,
2013-07-14 23:36:00,67.5,62.1,30.36,North,-999,-999.0,-999.0,83,-99.99,,,-99.99,Acu-Link.com,2013-07-15 03:36:00,
2013-07-14 23:51:00,67.1,62.1,30.36,North,-999,-999.0,-999.0,84,-99.99,,,-99.99,Acu-Link.com,2013-07-15 03:51:00,